This is the latest recevied weather packets stored in our database for station/object NZ3C. If no packets are shown the sender has not sent any weather packets the latest 10 day(s).
| Time | Temp. | Humidity | Pressure | Rain* | Wind** | Luminosity | Snow |
|---|---|---|---|---|---|---|---|
| 1777547469 | 15.56° C | 97% | 1010 hPa | 0 mm | - | 19 W/m² | - |
| 1777547168 | 15.56° C | 97% | 1010.1 hPa | 0 mm | - | 16 W/m² | - |
| 1777546864 | 15.56° C | 98% | 1010 hPa | 0 mm | - | 15 W/m² | - |
| 1777546561 | 15.56° C | 97% | 1009.9 hPa | 0 mm | - | 13 W/m² | - |
| 1777546258 | 15.56° C | 98% | 1009.9 hPa | 0 mm | - | 14 W/m² | - |
| 1777545955 | 15.56° C | 97% | 1009.6 hPa | 0 mm | - | 7 W/m² | - |
| 1777545651 | 15.56° C | 98% | 1009.8 hPa | 0 mm | - | 7 W/m² | - |
| 1777545349 | 15.56° C | 97% | 1009.7 hPa | 0 mm | - | 6 W/m² | - |
| 1777545046 | 15.56° C | 97% | 1009.8 hPa | 0 mm | - | 3 W/m² | - |
| 1777544743 | 15.56° C | 97% | 1010 hPa | 0 mm | - | 2 W/m² | - |
| 1777544438 | 15.56° C | 97% | 1009.7 hPa | 0 mm | - | 1 W/m² | - |
| 1777544134 | 15.56° C | 97% | 1009.9 hPa | 0 mm | - | 1 W/m² | - |
| 1777543832 | 16.11° C | 97% | 1009.6 hPa | 0 mm | - | 0 W/m² | - |
| 1777543528 | 16.11° C | 97% | 1009.7 hPa | 0 mm | - | 0 W/m² | - |
| 1777543225 | 16.11° C | 97% | 1009.7 hPa | 0 mm | - | 0 W/m² | - |
| 1777542920 | 16.11° C | 97% | 1009.4 hPa | 0 mm | - | 0 W/m² | - |
| 1777542617 | 16.11° C | 97% | 1009.5 hPa | 0 mm | - | 0 W/m² | - |
| 1777542313 | 16.11° C | 97% | 1009.6 hPa | 0 mm | - | 0 W/m² | - |
| 1777542011 | 15.56° C | 97% | 1009.4 hPa | 0 mm | - | 0 W/m² | - |
| 1777541708 | 15.56° C | 97% | 1009.4 hPa | 0 mm | - | 0 W/m² | - |
| 1777541405 | 15.56° C | 97% | 1009.4 hPa | 0 mm | - | 0 W/m² | - |
| 1777541100 | 15.56° C | 97% | 1009.6 hPa | 0 mm | - | 0 W/m² | - |
| 1777540798 | 15.56° C | 97% | 1009.4 hPa | 0 mm | - | 0 W/m² | - |
| 1777540495 | 15.56° C | 97% | 1009.2 hPa | 0 mm | - | 0 W/m² | - |
| 1777540191 | 15.56° C | 97% | 1009.3 hPa | 0 mm | - | 0 W/m² | - |
* Rain latest hour (hover to see other rain measurements)
** Current wind speed in m/s (hover to see current wind gust speed)